Regional Weather Roundup
Issued by NWS

Home | Current Version | Previous Version | Text Only | Print | Product List | Glossary On
Versions: 1 2 3 4 5 6 7 8 9 10 11 12 13 14 15 16 17 18 19 20 21 22 23 24 25 26 27 28 29 30 31 32 33 34 35 36 37 38 39 40 41 42 43 44 45 46 47 48 49 50
000
ASUS43 KDMX 170501
RWRIA

WEATHER ROUNDUP FOR IOWA
NATIONAL WEATHER SERVICE DES MOINES IA
1200 AM CDT THU AUG 17 2017

NOTE: "FAIR" INDICATES FEW OR NO CLOUDS BELOW 12,000 FEET WITH NO
SIGNIFICANT WEATHER AND/OR OBSTRUCTIONS TO VISIBILITY.

* - THESE STATIONS ARE NOT NWS STATIONS...THUS NOT UNDER NWS
QUALITY CONTROL.  THEY ALSO DO NOT REPORT WEATHER SUCH
AS PRECIPITATION OR FOG.

IAZ001>003-012>014-020>022-031>034-043>046-170600-
   NORTHWEST IOWA

CITY           SKY/WX    TMP DP  RH WIND       PRES   REMARKS
CARROLL *      PTCLDY    68  64  88 W14       29.76S
CHEROKEE *     CLOUDY    66  66 100 W10G21    29.74S
DENISON *      CLOUDY    66  63  88 W10G17    29.80F
LE MARS *      CLOUDY    66  64  94 W8G17     29.76S
ORANGE CITY *  CLOUDY    66  66 100 W14G20    29.75S
SHELDON *      DRIZZLE   66  64  94 W12G17    29.72S
SIOUX CITY     CLOUDY    67  64  90 W12       29.78S
SPENCER        LGT RAIN  67  65  93 W10       29.70F
STORM LAKE *   CLOUDY    64  64 100 W14G22    29.74F FOG
$$

IAZ055>058-069>071-079>083-090>094-170600-
   SOUTHWEST IOWA

CITY           SKY/WX    TMP DP  RH WIND       PRES   REMARKS
ATLANTIC *     CLOUDY    68  66  94 W8G14     29.80F
AUDUBON *      CLOUDY    68  64  88 CALM      29.80F
CLARINDA *     CLOUDY    72  68  88 NW9       29.84R
COUNCIL BLFS * CLEAR     66  64  94 NW12G20   29.83S
CRESTON *      MOCLDY    70  66  88 W9        29.81F
HARLAN  *      CLEAR     66  64  94 W9        29.83F
LAMONI         MOCLDY    72  67  84 SW8       29.80R
RED OAK *      PTCLDY    68  66  94 W5        29.83S
SHENANDOAH *   MOCLDY    70  64  83 W6        29.84R
$$

IAZ047>049-059>061-072>074-084-170600-
   CENTRAL IOWA

CITY           SKY/WX    TMP DP  RH WIND       PRES   REMARKS
AMES           CLOUDY    68  67  96 SW8       29.74S
ANKENY *       PTCLDY    70  66  88 W8G14     29.76S
BOONE *        CLEAR     68  64  88 W9G15     29.75R
CHARITON *     MOCLDY    73  68  83 SW8       29.78R
DES MOINES     PTCLDY    71  66  84 W9        29.76R
GRINNELL*      CLOUDY    73  66  78 SW9       29.76R
KNOXVILLE *    CLOUDY    73  66  78 SW7       29.75R
MARSHALLTOWN   CLOUDY    70  67  90 W8        29.72S
NEWTON *       CLOUDY    72  66  83 W9G16     29.75R
PELLA *        MOCLDY    74  65  75 W7        29.76R
PERRY *          N/A     67  67  97 SW8       29.76F
$$

IAZ004>006-015-016-023>025-035-036-170600-
   NORTH CENTRAL IOWA

CITY           SKY/WX    TMP DP  RH WIND       PRES   REMARKS
ALGONA *       CLOUDY    68  66  94 SW14      29.69F
CLARION *      MOCLDY    66  66 100 SW13G18   29.71S
ESTHERVILLE    CLOUDY    66  66 100 W13G21    29.66F
FORT DODGE *   CLOUDY    66  63  88 W12G18    29.73S
MASON CITY     MOCLDY    68  64  87 SW15      29.70S
FOREST CITY *  CLOUDY    68  64  88 SW13G21   29.68S
WEBSTER CITY * PTCLDY    66  64  94 W8G15     29.71S
IOWA FALLS *     N/A     68  65  90 SW12      29.74R
$$

IAZ007>011-017>019-026>030-037>042-050>054-066-170600-
   NORTHEAST IOWA

CITY           SKY/WX    TMP DP  RH WIND       PRES   REMARKS
CEDAR RAPIDS   CLOUDY    74  73  97 S12       29.72F
CHARLES CITY * CLOUDY    70  70 100 SW9G17    29.70R
CLINTON *      CLOUDY    74  72  93 SW13      29.77S
DECORAH *      CLOUDY    73  70  88 S7G15     29.68S
DUBUQUE        MOCLDY    73  71  93 S14       29.75S
MONTICELLO *   PTCLDY    75  73  94 S10G16    29.73S
OELWEIN *      CLOUDY    73  72  94 S9        29.71S
WATERLOO       PTCLDY    73  66  78 SW16      29.70S
$$

IAZ064-065-067-068-078-170600-
   EAST CENTRAL IOWA

CITY           SKY/WX    TMP DP  RH WIND       PRES   REMARKS
DAVENPORT      CLOUDY    75  70  84 S15G21    29.78F
IOWA CITY      MOCLDY    77  72  84 S8        29.75F
MUSCATINE *    CLOUDY    75  70  83 S13G21    29.76F
QUAD CITIES    PTCLDY    75  69  81 S13G21    29.75F
$$

IAZ062-063-075>077-085>089-095>099-170600-
   SOUTHEAST IOWA

CITY           SKY/WX    TMP DP  RH WIND       PRES   REMARKS
BURLINGTON     CLOUDY    74  69  85 SW13      29.79F
FAIRFIELD *    CLOUDY    77  70  78 S12G17    29.76F
FORT MADISON * CLOUDY    73  70  88 S12       29.79F
KEOKUK *       CLOUDY    73  70  88 MISG      29.79F
OSKALOOSA *    CLOUDY    74  70  86 SW7       29.76S
OTTUMWA        CLOUDY    75  72  90 S7        29.75F
WASHINGTON *   CLOUDY    75  72  88 S10G16    29.77F
$$

ABBREVIATIONS USED IN REMARKS
   TC - TEMPERATURES IN CELSIUS
  WCI - WIND CHILL INDEX
   HX - HEAT INDEX
  VSB - VISIBILITY
$$





USA.gov is the U.S. government's official web portal to all federal, state and local government web resources and services.